Training

Spin Video   We captured this 11 turn spin one day while out enjoying a flight in the Super Decathlon. Our advanced stall and spin class generally does 2-3 turn … [Read More...]

Weather

METAR FOR KCHA (Issued: Fri, May 27th 2016 3:53 AM UTC):
KCHA 270353Z 00000KT 10SM SCT075 SCT150 BKN250 23/17 A3006 RMK AO2 SLP170 LAST T02330167 $

Accomplishments

Congratulations

Congratulations, Ray Sikich who soloed in N68810 on June 3, 2015 … [Read More...]

Congratulations

Congratulations to Bobby Fitzu, for soloing on May 8, 2015 … [Read More...]

Dallas Bay Skypark - 1A0